OBJECT AA, 61759

Orbit data source: Space-Track

You're viewing an uncataloged RSO

Recently launched and/or uncataloged RSOs may have evolving metadata. Metadata may include the following, but is not limited to: Owner, Manufacturer, Bus, Motor, and Mission.

OBJECT AA, 61759 is a satellite in SSO that was launched on Mon, 04 Nov 2024 UTC via a SOYUZ-2-1B launch vehicle from the Vostochny Cosmodrome (VOSTO). Unknown objects in Earth's orbit typically refer to objects detected orbiting the Earth but have not yet been identified or cataloged. These objects could be anything from previously untracked satellites, spent rocket stages, debris from satellite collisions, or even natural meteoroids temporarily captured by Earth's gravity.

Loading next visibility...
Identifier
61759, 2024-199AA
Orbit
SSO
Country
Flag of TBDTBD
Related business
Manufacturer
Sputniks
Mission
Operational Commercial Communications
Bus & Motor
CUBESAT 3U?, Unknown motor
Mass
3 kg wet, 3 kg dry
Launch date (UTC)
2024-11-04 (2 years ago)
Launch vehicle
SOYUZ-2-1B
Launch site
Vostochny Cosmodrome (VOSTO)
Object type
Unknown
Shape & HBR
Box, 0.2 m
Radar Cross Section
0.035 m², Medium (>0.1 m² and < 1m²)

Expand to show TLE details & history
Last TLE update: 6 hours ago

TLE from 6 hours ago
0 OBJECT AA
1 61759U 24199AA  26264.55327920  .00002099  00000-0  18074-3 0  9999
2 61759  97.3182  98.1640 0007829 102.1109 258.0992 14.98316850149563
Epoch: 2026-09-21T13:16Z
TLE epoch observation values (Epoch: 2026-09-21T13:16:43.322Z)
Latitude
-0.00006°
Longitude
-101.44796°
Altitude
576.286 km
Speed
7.572 km/s
True Right ascension
06h 32m 39s
True Declination
0° 00' 00"
Sunlit
Object was in daylight at epoch
Visualization orbit readout
Latitude
Unknown
Longitude
Unknown
Altitude
Unknown
Speed
Unknown
Apparent Right ascension
Unknown
Apparent Declination
Unknown
Sunlit
N/A
Visualization observer readout
Local Sidereal Time
12:00:32
Azimuth
Unknown
Elevation
Unknown
Doppler factor
Unknown
Orbital elements
Apogee altitude
574.527 km
Perigee altitude
563.649 km
Semi-major axis
6,947.225 km
Eccentricity
0.00078
Inclination
97.3182°
RAAN
98.164°
Arg. of periapsis
102.1109°
True anomaly
258.01143°
Mean anomaly
258.0992°
Eccentric anomaly
258.05531°
Mean motion
3.74823 °/min
Orbital period
96.05 mins
BSTAR
0.00018074
Loading maneuver chart data...
Computing Atmospheric mass density...
Loading historical data...
Loading historical data...
Loading historical data...
Loading historical data...
Loading historical data...
Loading historical data...
Loading historical data...

Documentation

Showing up to 5 results
|